Lander, WY

7:59 AM MDT on July 27, 2017 (GMT -0600)
Hunt

Weather History for KLND - September, 2012

Change the Weather History Date:

Saturday, September 29, 2012

  Actual Average Record
Temperature  
Mean Temperature 60 °F 52 °F  
Max Temperature 74 °F 66 °F 84 °F (1969)
Min Temperature 46 °F 39 °F 23 °F (1985)
Degree Days  
Heating Degree Days 5 13  
Month to date heating degree days 82 206  
Since 1 July heating degree days 84 246  
Cooling Degree Days 0 0  
Month to date cooling degree days 36 26  
Year to date cooling degree days 779 471  
Growing Degree Days 11 (Base 50)    
Moisture  
Dew Point 34 °F    
Average Humidity 40    
Maximum Humidity 54    
Minimum Humidity 25    
Precipitation  
Precipitation 0.00 in 0.05 in 0.80 in (1905)
Month to date precipitation 0.35 1.01  
Year to date precipitation 5.03 9.89  
Snow  
Snow 0.00 in 0.20 in - ()
Month to date snowfall 0.0 2.5  
Since 1 July snowfall 0.0 2.5  
Since 1 September snowfall 0.0 2.5  
Snow Depth 0.00 in    
Sea Level Pressure  
Sea Level Pressure 30.01 in    
Wind  
Wind Speed 6 mph (West)    
Max Wind Speed 15 mph    
Max Gust Speed 23 mph    
Visibility 10 miles    
Events      
T = Trace of Precipitation, MM = Missing Value Source: NWS Daily Summary

Daily Weather History Graph

Daily Weather History Graph

Search for Another Location

Airport or City:

Trip Planner

Search our weather history database for the weather conditions in past years. The results will help you decide how hot, cold, wet, or windy it might be!

Date:

Astronomy

Sep. 29, 2012 Rise Set
Actual Time 7:10 AM MDT 6:58 PM MDT
Civil Twilight 6:42 AM MDT 7:26 PM MDT
Nautical Twilight 6:09 AM MDT 7:59 PM MDT
Astronomical Twilight 5:36 AM MDT 8:32 PM MDT
Moon 6:31 PM MDT (9/29) 6:45 AM MDT (9/29)
Length of Visible Light 12h 44m
Length of Day
11h 48m
Full, 100% of the Moon is Illuminated
Sep 29
Full
Sep 29
Full
Oct 8
Last Quarter
Oct 15
New
Oct 21
First Quarter

Hourly Weather History & Observations

Time (MDT) Temp. Dew Point Humidity Pressure Visibility Wind Dir Wind Speed Gust Speed Precip Events Conditions
12:53 AM 52.0 °F 34.0 °F 50% 29.98 in 10.0 mi South 3.5 mph - N/A   Clear
1:53 AM 55.9 °F 33.1 °F 42% 29.96 in 10.0 mi WSW 9.2 mph - N/A   Clear
2:53 AM 54.0 °F 33.1 °F 45% 29.95 in 10.0 mi Variable 5.8 mph - N/A   Clear
3:53 AM 52.0 °F 33.1 °F 49% 29.94 in 10.0 mi Calm Calm - N/A   Clear
4:53 AM 52.0 °F 33.1 °F 49% 29.94 in 10.0 mi WSW 5.8 mph - N/A   Clear
5:53 AM 52.0 °F 33.1 °F 49% 29.96 in 10.0 mi West 4.6 mph - N/A   Clear
6:53 AM 51.1 °F 33.1 °F 50% 29.99 in 10.0 mi NNW 3.5 mph - N/A   Clear
7:53 AM 52.0 °F 34.0 °F 50% 30.01 in 10.0 mi WSW 3.5 mph - N/A   Clear
8:53 AM 57.0 °F 34.0 °F 42% 30.01 in 10.0 mi WSW 8.1 mph - N/A   Mostly Cloudy
9:53 AM 52.0 °F 36.0 °F 54% 30.05 in 10.0 mi ESE 4.6 mph - N/A   Mostly Cloudy
10:53 AM 55.9 °F 37.9 °F 51% 30.03 in 10.0 mi ESE 5.8 mph - N/A   Mostly Cloudy
11:53 AM 63.0 °F 37.9 °F 40% 30.01 in 10.0 mi East 9.2 mph - N/A   Scattered Clouds
12:53 PM 68.0 °F 37.0 °F 32% 29.99 in 10.0 mi ESE 3.5 mph - N/A   Mostly Cloudy
1:53 PM 71.1 °F 34.0 °F 26% 29.96 in 10.0 mi Calm Calm - N/A   Partly Cloudy
2:53 PM 70.0 °F 35.1 °F 28% 29.98 in 10.0 mi NNW 9.2 mph - N/A   Mostly Cloudy
3:53 PM 69.1 °F 33.1 °F 26% 29.98 in 10.0 mi NW 5.8 mph - N/A   Mostly Cloudy
4:53 PM 69.1 °F 33.1 °F 26% 29.98 in 10.0 mi WNW 3.5 mph - N/A   Mostly Cloudy
5:53 PM 69.1 °F 34.0 °F 27% 29.98 in 10.0 mi Calm Calm - N/A   Mostly Cloudy
6:53 PM 64.9 °F 36.0 °F 34% 30.01 in 10.0 mi NNW 9.2 mph - N/A   Mostly Cloudy
7:53 PM 63.0 °F 33.1 °F 33% 30.04 in 10.0 mi NW 6.9 mph - N/A   Overcast
8:53 PM 57.9 °F 34.0 °F 41% 30.07 in 10.0 mi West 9.2 mph - N/A   Clear
9:53 PM 59.0 °F 33.1 °F 38% 30.10 in 10.0 mi WSW 12.7 mph 18.4 mph N/A   Clear
10:53 PM 57.9 °F 32.0 °F 37% 30.11 in 10.0 mi WSW 15.0 mph - N/A   Clear
11:53 PM 57.9 °F 30.9 °F 36% 30.09 in 10.0 mi WSW 11.5 mph - N/A   Clear